Location: Unspecified
(0.0000°N, 0.0000°E)
Time: 19:49:44
(UTC+02:00)

Centaur D-1AR AC-41 - Visible Passes

Search period start: 25 July 2016 00:00
Search period end: 04 August 2016 00:00
Orbit: 641 x 36200 km, 21.7° (Epoch: 24 July)

Date Brightness Start Highest point End Pass type
(mag) Time Alt. Az. Time Alt. Az. Time Alt. Az.
25 Jul 7.4 12:58:58 10° WNW 18:16:16 68° SSE 22:57:28 49° SE visible
26 Jul 6.4 10:28:19 10° NW 18:27:11 50° SE 20:31:07 10° ESE visible
28 Jul 8.1 16:54:21 10° W 18:27:02 48° WSW 02:33:01 26° WSW visible
29 Jul 7.4 14:13:50 10° WNW 15:03:22 85° SW 00:08:58 66° S visible
30 Jul 6.9 11:41:21 10° NW 19:06:06 63° SSE 21:44:54 27° ESE visible
01 Aug 10.7 18:27:09 10° W 19:47:13 25° WSW 22:50:17 10° WSW visible
02 Aug 7.6 15:31:09 10° WNW 16:58:33 64° WSW 01:20:23 48° WSW visible
03 Aug 7.3 12:55:14 10° WNW 17:28:11 68° SSE 22:56:17 52° SE visible
